Location: Kervinic
(48.4279°N, 4.7373°W)
Time: 15:27:15
(UTC+00:00)

Cosmos 614 Rocket - Pass Details

Date: 09 April 2020
Orbit: 734 x 763 km, 74.1° (Epoch: 03 June)

Event Time Altitude Azimuth Distance (km) Brightness Sun altitude
Rises 20:12:02 0° 209° (SSW) 3,214 7.3 -11.8°
Reaches altitude 10° 20:14:25 10° 212° (SSW) 2,291 6.5 -12.1°
Maximum altitude 20:19:35 67° 295° (WNW) 823 4.4 -12.9°
Drops below altitude 10° 20:24:47 10° 19° (NNE) 2,294 6.6 -13.6°
Sets 20:27:10 0° 22° (NNE) 3,219 7.3 -14.0°
